Starlink 31192

operational
NORAD ID: 58794 Int'l Des: 2024-012 Owner: SPXS Country: US Constellation: starlink
LEOCIRCULAR

About Starlink 31192

Description loading...

Live Position

Loading 3D Globe...

Upcoming Passes

Altitude History

Altitude vs Time

uPlot chart will show altitude changes over time

Two-Line Element Set

1 58794U 24012H 25350.20081082 .00003488 00000-0 13616-3 0 9991
2 58794 43.0026 277.0723 0001303 257.2156 102.8550 15.27590869108465
Epoch: Dec 16, 2025 • Age: 23 hours

Current Status

Altitude 487.4 km
Velocity 7.62 km/s
Sub-Earth Point -20.95°S, 98.1°E
Launch Date Jan 15, 2024
Age 1.9 years
Type internet

Technical Details

Classification Payload
Mass 730.00 kg
Dry Mass 700.00 kg
Total Mass 730.00 kg
Length 0.30 m
Diameter 4.10 m
Span 29.00 m
Shape Box + pan
Manufacturer SPXS
Bus Type Starlink V2M
Phase Status In Orbit
Owner/State SPXS/US

Large Constellations

Loading constellations...